Content
SEND FEEDBACK

Daily
Averages
Monthly
Summary
Turkmenistan

ASHGABAT, TURKMENISTAN


Home > Asia > Turkmenistan
Elevation: 236 meters     Latitude: 37 58N     Longitude: 058 20E

WEATHER
 
SELECT A DAY
Number of Records: 177,527;   Date Range: 3/15/97 - 9/16/14
 
SHARE

PRINT THIS DATA

[ ← Previous Day ]
WEATHER ALMANAC - 31 JANUARY, 2013
[ Next Day → ]
[ °F ]   °C
Weather ElementAverageHighLow
Temperature7.6 °C10 °C (1:00 pm)6 °C (3:00 am)
Dewpoint5 °C7 °C (5:00 pm)3 °C (5:00 am)
Humidity82.6 %93 % (1:00 am)68 % (2:00 pm)
Barometer1014.9 hPa1018.3 hPa (11:00 am)1010.2 hPa (10:00 pm)
Wind Speed12.2 km/h25.3 km/h (10:00 am)
Weather ElementAverage
Visibility9.2 km
Wind DirectionESE (102.2 °)

Weather ElementTotal
Precipitation---
Heating Degree Days10.3 (Base 18.3)
Averaged from 37 records on 31 January, 2013
WEATHER CONDITIONS BREAKOUT
WIND DIRECTION BREAKOUT
WEATHER BY HOUR - 31 JANUARY, 2013
[ °F ]   °C
Local TimeTemperatureDewpointHumidityBarometerVisibilityWind DirectionWind SpeedGust SpeedPrecipitationEventsConditions
1:00 AM7 °C6 °C93 %1015.2 hPa10 kmEast (100°)7.2 km/hMostly Cloudy
2:00 AM7.2 °C5 °C82 %1016.3 hPa9.7 kmNNE (30°)7.2 km/hOvercast
2:00 AM7 °C5 °C87 %1015.2 hPa10 kmENE (60°)10.8 km/hOvercast
3:00 AM6 °C4 °C87 %1016.3 hPa10 kmEast (100°)7.2 km/hOvercast
4:00 AM6 °C4 °C87 %1017.3 hPa10 kmESE (110°)7.2 km/hOvercast
5:00 AM6.7 °C3.9 °C75 %1017.3 hPa9.7 kmEast (90°)10.8 km/hOvercast
5:00 AM6 °C3 °C81 %1016.3 hPa10 kmEast (100°)10.8 km/hOvercast
5:30 AM6 °C3 °C81 %1016.3 hPa10 kmESE (110°)14.3 km/hOvercast
6:00 AM6 °C4 °C87 %1016.3 hPa10 kmEast (100°)10.8 km/hOvercast
7:00 AM6 °C4 °C87 %1017.3 hPa10 kmEast (100°)10.8 km/hOvercast
7:30 AM6 °C4 °C87 %1017.3 hPa10 kmEast (100°)14.3 km/hOvercast
8:00 AM6.1 °C3.9 °C79 %1017.9 hPa9.7 kmEast (100°)10.8 km/hOvercast
8:00 AM6 °C4 °C87 %1017.3 hPa10 kmEast (100°)14.3 km/hOvercast
9:00 AM7 °C4 °C81 %1017.3 hPa10 kmESE (110°)10.8 km/hOvercast
9:30 AM7 °C5 °C87 %1017.3 hPa10 kmESE (120°)18 km/hOvercast
10:00 AM7 °C4 °C81 %1017.3 hPa10 kmSE (130°)25.3 km/hOvercast
11:00 AM7.2 °C4.4 °C75 %1018.3 hPa9.7 kmEast (100°)21.6 km/hOvercast
11:00 AM7 °C5 °C87 %1017.3 hPa10 kmESE (120°)25.3 km/hOvercast
11:30 AM8 °C5 °C81 %1016.3 hPa10 kmESE (120°)21.6 km/hOvercast
12:00 PM9 °C5 °C76 %1016.3 hPa10 kmESE (120°)21.6 km/hOvercast
1:00 PM10 °C6 °C76 %1015.2 hPa6.9 kmEast (100°)14.3 km/hOvercast
2:00 PM10 °C6.1 °C68 %1014.9 hPa9.7 kmEast (90°)14.3 km/hOvercast
2:00 PM10 °C6 °C76 %1014.2 hPa8 kmEast (100°)18 km/hOvercast
3:00 PM10 °C6 °C76 %1013.2 hPa8 kmEast (100°)18 km/hOvercast
4:00 PM10 °C6 °C76 %1013.2 hPa8 kmEast (100°)18 km/hOvercast
5:00 PM10 °C6.7 °C71 %1013.9 hPa9.7 kmEast (90°)18 km/hOvercast
5:00 PM10 °C7 °C82 %1012.2 hPa6.9 kmEast (100°)18 km/hOvercast
6:00 PM10 °C6 °C76 %1012.2 hPa6.9 kmEast (90°)14.3 km/hOvercast
7:00 PM9 °C6 °C82 %1012.2 hPa6 kmEast (90°)7.2 km/hOvercast
8:00 PM7.8 °C5.6 °C83 %1012.9 hPa9.7 kmENE (70°)7.2 km/hScattered Clouds
8:00 PM8 °C6 °C87 %1012.2 hPaEast (80°)7.2 km/hMostly Cloudy
9:00 PM7 °C5 °C87 %1011.2 hPa4 kmVariable3.5 km/hOvercast
9:30 PM7 °C6 °C93 %1011.2 hPaCalmOvercast
10:00 PM7 °C5 °C87 %1010.2 hPaCalmOvercast
10:30 PM7 °C5 °C87 %1010.2 hPaWSW (240°)7.2 km/hOvercast
11:00 PM6.1 °C5 °C90 %1011.2 hPa9.7 kmWest (270°)3.5 km/hOvercast
11:00 PM7 °C6 °C93 %1010.2 hPaWSW (240°)3.5 km/hOvercast
Hourly data recorded from UTAA, located 0 kilometers away from Ashgabat, Turkmenistan







STORIES FROM OUR PARTNERS